Location: St. Louis
(38.6270°N, 90.1994°W)
Time: 10:20:25
(UTC-06:00)

Vanguard 2 Rocket - Pass Details

Date: 04 December 2021
Orbit: 553 x 3325 km, 32.9° (Epoch: 23 January)

Event Time Altitude Azimuth Distance (km) Brightness Sun altitude
Rises 20:08:11 0° 265° (W) 3,721 10.9 -40.1°
Reaches altitude 10° 20:10:21 10° 261° (W) 3,013 10.2 -40.5°
Enters shadow 20:15:58 53° 226° (SW) 1,798 8.3 -41.6°
Maximum altitude 20:17:52 62° 183° (S) 1,810 - -42.0°
Drops below altitude 10° 20:31:26 10° 107° (ESE) 5,219 - -44.6°
Sets 20:36:28 0° 105° (ESE) 6,613 - -45.6°
